Weather History for PHNL - January, 2013

Change the Weather History Date:

Thursday, January 17, 2013

  Actual Average Record
Temperature  
Mean Temperature 71 °F 73 °F  
Max Temperature 79 °F 80 °F 85 °F (1996)
Min Temperature 63 °F 66 °F 57 °F (2003)
Degree Days  
Heating Degree Days 0 0  
Month to date heating degree days 0 0  
Since 1 July heating degree days 0 0  
Cooling Degree Days 6 8  
Month to date cooling degree days 110 138  
Year to date cooling degree days 110 138  
Growing Degree Days 21 (Base 50)    
Moisture  
Dew Point 59 °F    
Average Humidity 65    
Maximum Humidity 87    
Minimum Humidity 42    
Precipitation  
Precipitation 0.00 in 0.06 in 2.23 in (1892)
Month to date precipitation 0.65 1.43  
Year to date precipitation 0.65 1.43  
Snow  
Snow 0.00 in - - ()
Month to date snowfall 0.0  
Since 1 July snowfall 0.0  
Snow Depth 0.00 in    
Sea Level Pressure  
Sea Level Pressure 29.89 in    
Wind  
Wind Speed 6 mph (NW)    
Max Wind Speed 15 mph    
Max Gust Speed 23 mph    
Visibility 10 miles    
Events      
T = Trace of Precipitation, MM = Missing Value Source: NWS Daily Summary

Daily Weather History Graph

Daily Weather History Graph

Search for Another Location

Airport or City:

Trip Planner

Search our weather history database for the weather conditions in past years. The results will help you decide how hot, cold, wet, or windy it might be!

Date:

Astronomy

Jan. 17, 2013 Rise Set
Actual Time 7:11 AM HST 6:12 PM HST
Civil Twilight 6:48 AM HST 6:36 PM HST
Nautical Twilight 6:20 AM HST 7:03 PM HST
Astronomical Twilight 5:53 AM HST 7:30 PM HST
Moon 11:20 AM HST (1/17) No Moon Set
Length of Visible Light 11h 48m
Length of Day
11h 00m
Waxing Crescent, 39% of the Moon is Illuminated
Jan 17
Waxing Crescent
Jan 18
First Quarter
Jan 26
Full
Feb 3
Last Quarter
Feb 9
New

Hourly Weather History & Observations

Time (HST) Temp. Dew Point Humidity Pressure Visibility Wind Dir Wind Speed Gust Speed Precip Events Conditions
12:53 AM 68.0 °F 61.0 °F 78% 29.90 in 10.0 mi NNW 5.8 mph - N/A   Scattered Clouds
1:53 AM 66.9 °F 61.0 °F 81% 29.89 in 10.0 mi NW 3.5 mph - N/A   Scattered Clouds
2:53 AM 66.9 °F 61.0 °F 81% 29.88 in 10.0 mi NNW 3.5 mph - N/A   Scattered Clouds
3:53 AM 66.0 °F 61.0 °F 84% 29.86 in 10.0 mi NW 3.5 mph - N/A   Partly Cloudy
4:53 AM 64.9 °F 61.0 °F 87% 29.86 in 10.0 mi NNW 3.5 mph - N/A   Partly Cloudy
5:53 AM 64.0 °F 60.1 °F 87% 29.87 in 10.0 mi NNW 4.6 mph - N/A   Partly Cloudy
6:53 AM 64.9 °F 61.0 °F 87% 29.89 in 10.0 mi NNW 3.5 mph - N/A   Partly Cloudy
7:53 AM 66.0 °F 61.0 °F 84% 29.91 in 10.0 mi NNW 3.5 mph - N/A   Scattered Clouds
8:53 AM 71.1 °F 62.1 °F 73% 29.92 in 10.0 mi Calm Calm - N/A   Scattered Clouds
9:53 AM 75.0 °F 59.0 °F 57% 29.93 in 10.0 mi NW 4.6 mph - N/A   Scattered Clouds
10:53 AM 77.0 °F 57.0 °F 50% 29.92 in 10.0 mi Calm Calm - N/A   Scattered Clouds
11:53 AM 77.0 °F 57.9 °F 52% 29.89 in 10.0 mi SW 9.2 mph - N/A   Scattered Clouds
12:53 PM 75.9 °F 60.1 °F 58% 29.86 in 10.0 mi SW 10.4 mph - N/A   Scattered Clouds
1:53 PM 78.1 °F 59.0 °F 52% 29.84 in 10.0 mi SSW 11.5 mph - N/A   Scattered Clouds
2:53 PM 77.0 °F 57.9 °F 52% 29.82 in 10.0 mi WNW 8.1 mph 16.1 mph N/A   Mostly Cloudy
3:53 PM 77.0 °F 55.0 °F 47% 29.83 in 10.0 mi NW 10.4 mph - N/A   Scattered Clouds
4:53 PM 78.1 °F 54.0 °F 43% 29.84 in 10.0 mi West 10.4 mph - N/A   Scattered Clouds
5:53 PM 75.0 °F 54.0 °F 48% 29.88 in 10.0 mi North 10.4 mph - N/A   Partly Cloudy
6:53 PM 73.0 °F 55.0 °F 53% 29.89 in 10.0 mi NNW 5.8 mph - N/A   Partly Cloudy
7:53 PM 71.1 °F 59.0 °F 66% 29.91 in 10.0 mi North 4.6 mph - N/A   Scattered Clouds
8:53 PM 69.1 °F 59.0 °F 70% 29.92 in 10.0 mi Calm Calm - N/A   Partly Cloudy
9:53 PM 68.0 °F 60.1 °F 76% 29.92 in 10.0 mi NW 5.8 mph - N/A   Partly Cloudy
10:53 PM 66.9 °F 57.9 °F 73% 29.91 in 10.0 mi NNW 5.8 mph - N/A   Scattered Clouds
11:53 PM 66.0 °F 59.0 °F 78% 29.91 in 10.0 mi NW 6.9 mph - N/A   Partly Cloudy